NEXUS (FO-99) (43937 NORAD) Tracking and Keplerian Element Data

This shows tracking and keplerian element data for the satellite.

Feedback or suggestion? Click here.




ElementValue
Catalog43937
NameNEXUS (FO-99)
Epoch Orbit25701
Epoch Day238.639012
Epoch Year2023
RAAN265.4331
Inclination97.0795
Eccentricity0.0008037
Argument of Perigee35.6673
Mean Anonmoly324.5122
Mean Motion15.63434724
Decay Rate0.00100475
L11 43937U 19003F 23238.63901200 .00100475 00000+0 10782-2 0 9994
L22 43937 97.0795 265.4331 0008037 35.6673 324.5122 15.63434724257010



Live tracking and technical data element details for NEXUS (FO-99) (NORAD 43937). NEXUS (FO-99) can be tracked NOW for your location showing map with azimuth and elevation plus other details from your city location.







IsCatalogInMostPopularTable: catalog: 43937, numindb: 698
Update: records affected: 1



GetName: 43937 NEXUS (FO-99)

Hit Count: updated at: Sat, 14 Jun 2025 17:58:54 GMT